Clintonville, WI

4:10 PM CST on February 24, 2018 (GMT -0600)
Clintonville Municipal

Weather History for KCLI - February, 2014

Change the Weather History Date:

Monday, February 24, 2014

  Actual Average Record
Temperature  
Mean Temperature 11 °F -  
Max Temperature 17 °F 34 °F 50 °F (1984)
Min Temperature 5 °F 13 °F -12 °F (1967)
Degree Days  
Heating Degree Days 54    
Moisture  
Dew Point 1 °F    
Average Humidity 64    
Maximum Humidity 78    
Minimum Humidity 49    
Precipitation  
Precipitation 0.00 in - - ()
Sea Level Pressure  
Sea Level Pressure 30.14 in    
Wind  
Wind Speed 10 mph (West)    
Max Wind Speed 15 mph    
Max Gust Speed 22 mph    
Visibility 10 miles    
Events      
Averages and records for this station are not official NWS values.
T = Trace of Precipitation, MM = Missing Value Source: NWS Daily Summary

Daily Weather History Graph

Daily Weather History Graph

Search for Another Location

Airport or City:

Trip Planner

Search our weather history database for the weather conditions in past years. The results will help you decide how hot, cold, wet, or windy it might be!

Date:

Astronomy

Feb. 24, 2014 Rise Set
Actual Time 6:40 AM CST 5:36 PM CST
Civil Twilight 6:11 AM CST 6:05 PM CST
Nautical Twilight 5:37 AM CST 6:39 PM CST
Astronomical Twilight 5:03 AM CST 7:13 PM CST
Moon 2:46 AM CST 12:29 PM CST
Length of Visible Light 11h 54m
Length of Day
10h 55m
Waning Crescent, 28% of the Moon is Illuminated
Feb 24
Waning Crescent
Mar 1
New
Mar 8
First Quarter
Mar 16
Full
Mar 23
Last Quarter

Hourly Weather History & Observations

Time (CST) Temp. Windchill Dew Point Humidity Pressure Visibility Wind Dir Wind Speed Gust Speed Precip Events Conditions
12:15 AM 12.2 °F -1.0 °F 3.2 °F 67% 30.09 in 10.0 mi West 10.4 mph - N/A   Clear
12:35 AM 12.2 °F -1.8 °F 3.2 °F 67% 30.09 in 10.0 mi West 11.5 mph - N/A   Clear
12:55 AM 10.4 °F -2.4 °F 1.4 °F 67% 30.09 in 10.0 mi West 9.2 mph - N/A   Clear
1:15 AM 10.4 °F -2.4 °F 1.4 °F 67% 30.09 in 10.0 mi West 9.2 mph - N/A   Clear
1:35 AM 10.4 °F -1.5 °F 1.4 °F 67% 30.09 in 10.0 mi West 8.1 mph - N/A   Clear
1:55 AM 10.4 °F -2.4 °F 1.4 °F 67% 30.09 in 10.0 mi West 9.2 mph - N/A   Clear
2:15 AM 10.4 °F -1.5 °F 1.4 °F 67% 30.09 in 10.0 mi West 8.1 mph - N/A   Clear
2:35 AM 8.6 °F -5.5 °F 1.4 °F 73% 30.09 in 10.0 mi West 10.4 mph - N/A   Clear
2:55 AM 8.6 °F -5.5 °F 1.4 °F 73% 30.09 in 10.0 mi West 10.4 mph - N/A   Clear
3:15 AM 8.6 °F -4.7 °F 1.4 °F 73% 30.09 in 10.0 mi West 9.2 mph - N/A   Clear
3:35 AM 8.6 °F -3.7 °F 1.4 °F 73% 30.09 in 10.0 mi West 8.1 mph - N/A   Clear
3:55 AM 8.6 °F -4.7 °F -0.4 °F 67% 30.10 in 10.0 mi West 9.2 mph - N/A   Clear
4:15 AM 8.6 °F -4.7 °F -0.4 °F 67% 30.10 in 10.0 mi West 9.2 mph - N/A   Clear
4:35 AM 6.8 °F -5.9 °F -0.4 °F 72% 30.11 in 10.0 mi West 8.1 mph - N/A   Clear
4:55 AM 6.8 °F -6.9 °F -0.4 °F 72% 30.11 in 10.0 mi West 9.2 mph - N/A   Clear
5:15 AM 6.8 °F -5.9 °F -0.4 °F 72% 30.11 in 10.0 mi West 8.1 mph - N/A   Clear
5:23 AM 6.8 °F -5.9 °F -2.2 °F 67% 30.11 in 10.0 mi West 8.1 mph - N/A   Clear
5:35 AM 5.0 °F -8.1 °F -0.4 °F 78% 30.11 in 10.0 mi West 8.1 mph - N/A   Clear
5:43 AM 5.0 °F -8.1 °F -2.2 °F 72% 30.11 in 10.0 mi West 8.1 mph - N/A   Clear
5:55 AM 5.0 °F -9.1 °F -0.4 °F 78% 30.11 in 10.0 mi West 9.2 mph - N/A   Clear
6:03 AM 5.0 °F -8.1 °F -2.2 °F 72% 30.11 in 10.0 mi West 8.1 mph - N/A   Clear
6:15 AM 5.0 °F -8.1 °F -0.4 °F 78% 30.11 in 10.0 mi West 8.1 mph - N/A   Clear
6:35 AM 5.0 °F -10.0 °F -0.4 °F 78% 30.12 in 10.0 mi West 10.4 mph - N/A   Clear
6:55 AM 5.0 °F -8.1 °F -0.4 °F 78% 30.13 in 10.0 mi West 8.1 mph - N/A   Clear
7:15 AM 5.0 °F -8.1 °F -2.2 °F 72% 30.13 in 10.0 mi West 8.1 mph - N/A   Mostly Cloudy
7:35 AM 5.0 °F -8.1 °F -2.2 °F 72% 30.13 in 10.0 mi West 8.1 mph - N/A   Overcast
7:55 AM 5.0 °F -9.1 °F -2.2 °F 72% 30.14 in 10.0 mi West 9.2 mph - N/A   Overcast
8:15 AM 6.8 °F -9.3 °F -0.4 °F 72% 30.14 in 10.0 mi West 12.7 mph - N/A   Scattered Clouds
8:35 AM 6.8 °F -8.6 °F -0.4 °F 72% 30.14 in 10.0 mi WNW 11.5 mph 19.6 mph N/A   Scattered Clouds
8:55 AM 8.6 °F -7.7 °F -0.4 °F 67% 30.15 in 10.0 mi WNW 13.8 mph 18.4 mph N/A   Mostly Cloudy
9:15 AM 8.6 °F -7.7 °F -0.4 °F 67% 30.16 in 10.0 mi WNW 13.8 mph 20.7 mph N/A   Overcast
9:35 AM 8.6 °F -6.3 °F -0.4 °F 67% 30.16 in 10.0 mi NW 11.5 mph - N/A   Overcast
9:55 AM 8.6 °F -7.0 °F -0.4 °F 67% 30.15 in 10.0 mi NW 12.7 mph 20.7 mph N/A   Mostly Cloudy
10:15 AM 8.6 °F -7.7 °F -0.4 °F 67% 30.16 in 10.0 mi WNW 13.8 mph - N/A   Scattered Clouds
10:35 AM 10.4 °F -6.0 °F -0.4 °F 62% 30.16 in 10.0 mi West 15.0 mph 21.9 mph N/A   Mostly Cloudy
10:55 AM 10.4 °F -4.8 °F -0.4 °F 62% 30.17 in 10.0 mi West 12.7 mph - N/A   Mostly Cloudy
11:15 AM 12.2 °F -3.1 °F -0.4 °F 57% 30.16 in 10.0 mi West 13.8 mph - N/A   Mostly Cloudy
11:35 AM 12.2 °F -1.8 °F 1.4 °F 62% 30.16 in 10.0 mi WNW 11.5 mph 19.6 mph N/A   Scattered Clouds
11:55 AM 12.2 °F -2.5 °F 1.4 °F 62% 30.15 in 10.0 mi West 12.7 mph 17.3 mph N/A   Scattered Clouds
12:15 PM 14.0 °F -0.8 °F -0.4 °F 53% 30.15 in 10.0 mi West 13.8 mph 19.6 mph N/A   Clear
12:35 PM 14.0 °F 0.5 °F 1.4 °F 57% 30.15 in 10.0 mi WNW 11.5 mph 17.3 mph N/A   Clear
12:55 PM 14.0 °F 1.2 °F -0.4 °F 53% 30.15 in 10.0 mi WNW 10.4 mph 16.1 mph N/A   Clear
1:15 PM 15.8 °F 2.1 °F 1.4 °F 53% 30.14 in 10.0 mi West 12.7 mph 16.1 mph N/A   Clear
1:35 PM 15.8 °F 2.7 °F 1.4 °F 53% 30.14 in 10.0 mi WNW 11.5 mph 17.3 mph N/A   Clear
1:55 PM 15.8 °F 1.4 °F 1.4 °F 53% 30.15 in 10.0 mi West 13.8 mph 17.3 mph N/A   Clear
2:15 PM 17.6 °F 4.3 °F 1.4 °F 49% 30.14 in 10.0 mi West 12.7 mph 16.1 mph N/A   Clear
2:35 PM 17.6 °F 4.3 °F 1.4 °F 49% 30.15 in 10.0 mi West 12.7 mph - N/A   Clear
2:55 PM 17.6 °F 5.7 °F 1.4 °F 49% 30.15 in 10.0 mi West 10.4 mph - N/A   Clear
3:15 PM 17.6 °F 5.7 °F 1.4 °F 49% 30.15 in 10.0 mi West 10.4 mph 17.3 mph N/A   Clear
3:35 PM 17.6 °F 4.3 °F 1.4 °F 49% 30.15 in 10.0 mi West 12.7 mph - N/A   Clear
3:55 PM 17.6 °F 5.7 °F 1.4 °F 49% 30.15 in 10.0 mi West 10.4 mph - N/A   Clear
4:15 PM 17.6 °F 5.0 °F 1.4 °F 49% 30.15 in 10.0 mi West 11.5 mph - N/A   Clear
4:35 PM 17.6 °F 6.4 °F 1.4 °F 49% 30.15 in 10.0 mi West 9.2 mph - N/A   Clear
4:55 PM 15.8 °F 2.7 °F 1.4 °F 53% 30.15 in 10.0 mi West 11.5 mph - N/A   Clear
5:15 PM 14.0 °F 2.9 °F 1.4 °F 57% 30.15 in 10.0 mi West 8.1 mph - N/A   Clear
5:35 PM 14.0 °F 2.0 °F 1.4 °F 57% 30.16 in 10.0 mi West 9.2 mph - N/A   Clear
5:55 PM 12.2 °F -1.8 °F 1.4 °F 62% 30.17 in 10.0 mi West 11.5 mph - N/A   Clear
6:15 PM 12.2 °F -0.2 °F 1.4 °F 62% 30.17 in 10.0 mi West 9.2 mph - N/A   Clear
6:35 PM 12.2 °F 0.7 °F 1.4 °F 62% 30.17 in 10.0 mi West 8.1 mph - N/A   Clear
6:55 PM 12.2 °F 1.7 °F 1.4 °F 62% 30.17 in 10.0 mi West 6.9 mph - N/A   Clear
7:15 PM 12.2 °F 0.7 °F 1.4 °F 62% 30.17 in 10.0 mi West 8.1 mph - N/A   Clear
7:35 PM 12.2 °F 1.7 °F 1.4 °F 62% 30.17 in 10.0 mi West 6.9 mph - N/A   Clear
7:55 PM 12.2 °F 4.3 °F 1.4 °F 62% 30.17 in 10.0 mi West 4.6 mph - N/A   Clear
8:15 PM 12.2 °F 6.1 °F 1.4 °F 62% 30.16 in 10.0 mi West 3.5 mph - N/A   Clear
8:35 PM 10.4 °F 2.2 °F 1.4 °F 67% 30.16 in 10.0 mi West 4.6 mph - N/A   Clear
8:55 PM 10.4 °F 2.2 °F 1.4 °F 67% 30.17 in 10.0 mi West 4.6 mph - N/A   Clear
9:15 PM 10.4 °F 0.8 °F 1.4 °F 67% 30.18 in 10.0 mi West 5.8 mph - N/A   Clear
9:35 PM 10.4 °F -0.4 °F 1.4 °F 67% 30.18 in 10.0 mi West 6.9 mph - N/A   Clear
9:55 PM 10.4 °F -0.4 °F 1.4 °F 67% 30.18 in 10.0 mi West 6.9 mph - N/A   Clear
10:15 PM 10.4 °F -2.4 °F 1.4 °F 67% 30.18 in 10.0 mi West 9.2 mph - N/A   Clear
10:35 PM 10.4 °F -2.4 °F 1.4 °F 67% 30.17 in 10.0 mi WNW 9.2 mph - N/A   Scattered Clouds
10:55 PM 10.4 °F -1.5 °F 1.4 °F 67% 30.18 in 10.0 mi WNW 8.1 mph - N/A   Scattered Clouds
11:15 PM 10.4 °F 0.8 °F 1.4 °F 67% 30.17 in 10.0 mi WNW 5.8 mph - N/A   Scattered Clouds
11:35 PM 10.4 °F -0.4 °F 1.4 °F 67% 30.17 in 10.0 mi WNW 6.9 mph - N/A   Mostly Cloudy
11:55 PM 10.4 °F -0.4 °F 1.4 °F 67% 30.17 in 10.0 mi WNW 6.9 mph - N/A   Overcast